Temp
-8 -8 -7 -7 -7 -7 -7 -8 -7 -7 -7 -7 -6 -7 -7 -6 -6 -6 -6 -6 -6 -7 -6 -6 -6 -6 -5 -5 -5 -5 -6 -6 -6 -5 -6 -7 -7 -7 -6 -6 -6 -6 -7 -7
-8 -8 -8 -7 -7 -7 -8 -7 -7 -7 -7 -7 -7 -8 -7 -7 -6 -6 -6 -7 -6 -6 -6 -6 -6 -6 -6 -5 -5 -5 -6 -6 -6 -6 -6 -6 -7 -7 -7 -6 -6 -6 -6 -7
-9 -8 -8 -8 -8 -8 -8 -8 -7 -7 -7 -7 -7 -8 -8 -7 -7 -7 -7 -6 -6 -6 -6 -7 -7 -6 -6 -5 -5 -5 -5 -5 -6 -6 -6 -6 -6 -7 -6 -6 -6 -6 -6 -6
-9 -9 -8 -8 -8 -8 -8 -8 -6 -7 -8 -8 -7 -8 -8 -7 -7 -7 -7 -7 -6 -6 -6 -7 -7 -7 -6 -6 -5 -5 -5 -5 -6 -6 -6 -6 -6 -6 -7 -6 -6 -6 -6 -6
-9 -9 -9 -8 -9 -9 -9 -7 -7 -7 -7 -7 -8 -9 -8 -8 -8 -6 -7 -7 -6 -7 -6 -6 -7 -7 -7 -6 -6 -5 -5 -5 -6 -6 -6 -6 -6 -6 -7 -6 -6 -6 -6 -6
-9 -9 -9 -10 -9 -9 -8 -8 -8 -7 -7 -8 -9 -9 -8 -8 -8 -7 -7 -7 -6 -6 -6 -5 -6 -7 -6 -6 -6 -6 -6 -5 -6 -6 -6 -7 -7 -6 -6 -6 -6 -6 -6 -6
-10 -10 -9 -9 -9 -9 -8 -8 -8 -8 -8 -9 -9 -9 -7 -8 -8 -8 -8 -8 -7 -7 -6 -6 -5 -6 -7 -7 -7 -7 -6 -6 -6 -6 -6 -7 -7 -7 -6 -6 -6 -6 -6 -6
-11 -10 -9 -9 -9 -9 -8 -9 -10 -8 -9 -10 -8 -9 -7 -8 -8 -8 -8 -8 -8 -8 -7 -8 -7 -6 -6 -7 -7 -7 -7 -6 -6 -6 -6 -7 -7 -7 -6 -6 -6 -6 -7 -6
-13 -10 -10 -9 -9 -9 -9 -9 -11 -11 -10 -10 -9 -7 -8 -8 -8 -8 -8 -8 -8 -8 -8 -7 -6 -7 -6 -7 -7 -7 -7 -7 -6 -6 -6 -6 -7 -7 -6 -6 -6 -6 -6 -6
-11 -10 -10 -10 -10 -10 -9 -10 -9 -9 -10 -10 -10 -8 -8 -8 -8 -8 -9 -9 -8 -8 -8 -7 -7 -8 -7 -7 -7 -7 -7 -7 -7 -6 -6 -6 -7 -7 -7 -6 -6 -6 -6 -6
-12 -12 -11 -11 -11 -10 -10 -10 -9 -11 -10 -10 -10 -9 -7 -8 -8 -9 -9 -9 -9 -8 -8 -8 -7 -8 -8 -7 -7 -7 -7 -7 -7 -6 -6 -6 -6 -7 -7 -7 -6 -5 -5 -6
-13 -12 -12 -11 -11 -11 -10 -9 -9 -10 -9 -10 -10 -9 -8 -8 -8 -9 -9 -9 -9 -9 -9 -9 -8 -8 -8 -7 -8 -7 -7 -7 -7 -7 -6 -6 -6 -6 -7 -7 -6 -6 -5 -5
-14 -13 -13 -12 -12 -12 -11 -10 -10 -10 -10 -12 -11 -10 -8 -8 -8 -9 -9 -9 -9 -9 -9 -9 -10 -9 -9 -8 -8 -7 -7 -7 -7 -7 -7 -6 -6 -6 -6 -7 -6 -6 -6 -5
-14 -14 -14 -15 -14 -12 -11 -11 -11 -10 -12 -13 -12 -11 -9 -9 -9 -9 -9 -9 -9 -9 -9 -9 -9 -10 -9 -9 -8 -8 -8 -7 -6 -7 -7 -7 -7 -6 -6 -6 -6 -6 -5 -5
-15 -15 -15 -14 -13 -12 -12 -11 -11 -11 -11 -12 -13 -11 -9 -9 -9 -9 -9 -10 -9 -9 -9 -9 -9 -9 -9 -9 -8 -8 -7 -8 -8 -7 -7 -7 -7 -7 -7 -6 -6 -6 -6 -6
-16 -15 -15 -14 -14 -14 -13 -12 -12 -12 -12 -12 -12 -10 -10 -10 -10 -10 -9 -9 -9 -9 -9 -9 -9 -9 -9 -9 -9 -9 -8 -8 -8 -8 -8 -7 -7 -7 -7 -7 -6 -6 -6 -6
-16 -15 -15 -15 -15 -14 -14 -14 -13 -12 -12 -12 -13 -11 -11 -11 -10 -10 -10 -9 -9 -9 -9 -9 -8 -8 -9 -9 -9 -9 -9 -9 -8 -8 -8 -8 -7 -8 -8 -7 -7 -6 -6 -6
-16 -16 -15 -15 -15 -16 -14 -14 -14 -14 -13 -13 -13 -12 -12 -12 -11 -11 -11 -10 -10 -9 -9 -9 -9 -8 -8 -8 -9 -9 -9 -9 -9 -9 -8 -8 -7 -8 -7 -7 -8 -8 -7 -6
-15 -15 -15 -15 -16 -14 -15 -15 -14 -14 -13 -13 -13 -13 -13 -13 -13 -12 -12 -11 -10 -10 -10 -9 -9 -9 -9 -9 -9 -9 -9 -9 -9 -9 -9 -8 -8 -7 -7 -7 -7 -7 -7 -7
-16 -15 -16 -15 -15 -15 -14 -15 -15 -14 -14 -14 -14 -14 -13 -13 -14 -12 -13 -13 -12 -11 -10 -10 -10 -9 -9 -9 -9 -9 -9 -9 -9 -9 -9 -8 -8 -8 -8 -8 -8 -8 -7 -7
-15 -15 -15 -15 -15 -15 -14 -14 -14 -14 -14 -14 -14 -14 -14 -14 -14 -13 -13 -13 -13 -13 -12 -11 -11 -10 -9 -9 -9 -9 -9 -10 -9 -9 -9 -9 -8 -8 -8 -8 -8 -8 -7 -8
-16 -16 -16 -15 -15 -15 -15 -15 -14 -14 -14 -15 -15 -14 -14 -14 -14 -14 -14 -14 -14 -14 -13 -13 -12 -11 -11 -10 -9 -9 -9 -9 -9 -9 -9 -9 -9 -9 -9 -8 -9 -8 -8 -8
-16 -16 -16 -16 -16 -16 -16 -15 -15 -15 -15 -15 -15 -15 -15 -15 -15 -15 -14 -14 -14 -14 -13 -13 -13 -12 -12 -11 -10 -10 -9 -9 -9 -9 -9 -9 -9 -9 -9 -9 -9 -9 -8 -8
-17 -17 -17 -17 -17 -17 -16 -16 -16 -16 -16 -16 -16 -15 -15 -15 -15 -15 -15 -15 -14 -14 -14 -14 -13 -13 -13 -12 -11 -11 -10 -9 -9 -9 -9 -9 -9 -9 -9 -9 -9 -9 -9 -9
-17 -17 -17 -17 -17 -17 -17 -17 -17 -17 -17 -17 -17 -16 -16 -16 -16 -16 -16 -16 -16 -15 -14 -14 -14 -14 -13 -13 -13 -12 -11 -11 -10 -10 -9 -9 -9 -9 -9 -9 -9 -8 -8 -8
-17 -17 -17 -17 -17 -17 -17 -17 -17 -17 -16 -16 -16 -16 -16 -16 -16 -16 -16 -16 -16 -16 -16 -15 -15 -14 -14 -14 -13 -13 -13 -12 -11 -10 -10 -9 -9 -9 -9 -8 -8 -8 -8 -8
Height
5844 5850 5856 5861 5864 5863 5873 5877 5881 5884 5889 5893 5895 5897 5899 5901 5901 5902 5904 5907 5909 5911 5914 5917 5920 5923 5925 5926 5928 5932 5935 5936 5937 5938 5941 5942 5942 5942 5942 5944 5945 5944 5945 5947
5839 5845 5848 5853 5857 5864 5870 5874 5877 5882 5885 5890 5893 5895 5898 5899 5899 5900 5902 5905 5907 5910 5914 5917 5919 5922 5923 5925 5927 5930 5934 5935 5938 5940 5941 5943 5943 5942 5943 5944 5945 5946 5947 5948
5833 5838 5842 5848 5853 5859 5864 5870 5873 5878 5884 5887 5890 5893 5895 5896 5897 5898 5901 5902 5906 5908 5911 5915 5917 5919 5922 5924 5925 5928 5932 5935 5938 5940 5941 5942 5944 5943 5943 5945 5946 5946 5948 5949
5825 5830 5837 5844 5849 5855 5859 5862 5869 5875 5882 5886 5889 5894 5893 5894 5895 5896 5900 5901 5901 5904 5908 5912 5914 5917 5919 5921 5924 5928 5930 5933 5937 5939 5940 5942 5945 5946 5945 5946 5947 5948 5949 5951
5820 5825 5833 5839 5845 5850 5853 5858 5864 5870 5878 5882 5886 5892 5890 5891 5893 5895 5898 5900 5901 5904 5908 5910 5914 5916 5918 5921 5924 5927 5930 5933 5935 5937 5940 5941 5943 5946 5946 5947 5947 5948 5949 5951
5812 5819 5825 5833 5838 5844 5850 5855 5861 5868 5874 5879 5882 5887 5884 5887 5890 5894 5897 5899 5901 5903 5905 5908 5910 5912 5916 5920 5923 5927 5929 5931 5934 5937 5938 5941 5943 5945 5948 5948 5949 5948 5949 5952
5808 5813 5820 5827 5832 5838 5845 5851 5857 5863 5866 5877 5877 5881 5876 5883 5887 5891 5894 5897 5900 5903 5903 5906 5909 5912 5915 5919 5923 5925 5928 5930 5933 5936 5939 5941 5942 5944 5946 5949 5951 5952 5951 5951
5803 5809 5813 5820 5826 5833 5841 5848 5854 5859 5864 5870 5872 5872 5874 5879 5883 5887 5891 5894 5898 5899 5901 5903 5905 5908 5912 5915 5919 5922 5925 5928 5931 5934 5937 5940 5942 5943 5944 5947 5951 5953 5955 5954
5797 5801 5809 5815 5822 5829 5835 5840 5847 5853 5862 5868 5864 5860 5872 5874 5879 5883 5887 5891 5895 5897 5898 5900 5903 5905 5910 5912 5915 5919 5922 5924 5928 5931 5934 5937 5940 5942 5942 5945 5949 5952 5954 5955
5792 5798 5803 5810 5816 5822 5827 5835 5841 5847 5853 5861 5857 5863 5860 5868 5873 5878 5883 5887 5892 5893 5894 5897 5898 5901 5905 5909 5911 5914 5917 5921 5923 5927 5931 5934 5937 5940 5942 5944 5946 5948 5952 5954
5788 5794 5800 5805 5808 5813 5821 5828 5834 5840 5845 5854 5853 5856 5858 5865 5869 5874 5878 5883 5887 5891 5891 5892 5894 5894 5899 5904 5908 5911 5913 5917 5920 5923 5927 5930 5934 5936 5939 5941 5944 5946 5948 5951
5781 5788 5794 5798 5805 5810 5815 5820 5826 5833 5840 5845 5852 5845 5853 5858 5863 5868 5872 5877 5882 5886 5888 5888 5889 5888 5896 5900 5904 5908 5910 5913 5916 5918 5921 5925 5928 5932 5935 5938 5940 5944 5946 5948
5776 5781 5788 5793 5799 5803 5807 5814 5820 5827 5830 5837 5844 5841 5847 5852 5856 5861 5866 5871 5875 5879 5883 5885 5887 5889 5892 5894 5898 5902 5907 5909 5911 5913 5917 5920 5925 5929 5932 5933 5936 5939 5942 5945
5768 5774 5780 5789 5792 5796 5802 5807 5813 5819 5825 5831 5834 5832 5840 5845 5849 5853 5858 5863 5868 5872 5876 5879 5883 5886 5887 5890 5892 5895 5900 5904 5907 5910 5912 5916 5920 5924 5927 5929 5932 5934 5937 5941
5766 5770 5773 5777 5782 5787 5794 5799 5805 5809 5813 5820 5819 5824 5831 5837 5842 5845 5849 5853 5858 5862 5866 5870 5874 5878 5882 5883 5886 5890 5893 5896 5901 5905 5908 5911 5913 5917 5920 5924 5927 5930 5933 5936
5760 5764 5769 5772 5775 5779 5785 5791 5796 5801 5806 5810 5812 5816 5824 5827 5832 5837 5840 5844 5848 5852 5856 5860 5863 5868 5872 5876 5878 5882 5885 5889 5893 5898 5901 5903 5906 5910 5914 5918 5920 5923 5927 5930
5755 5758 5763 5766 5770 5775 5779 5783 5788 5792 5797 5801 5806 5806 5815 5818 5822 5827 5832 5836 5839 5843 5847 5851 5854 5858 5862 5866 5870 5872 5876 5881 5884 5886 5890 5895 5899 5902 5906 5909 5912 5917 5920 5923
5749 5753 5757 5760 5763 5767 5768 5775 5780 5783 5788 5792 5796 5802 5805 5809 5812 5816 5821 5827 5830 5833 5837 5840 5844 5848 5852 5856 5860 5864 5867 5870 5874 5875 5881 5884 5889 5894 5897 5901 5904 5907 5910 5914
5744 5747 5751 5754 5758 5760 5763 5767 5771 5774 5778 5783 5786 5792 5795 5799 5802 5805 5808 5813 5818 5822 5826 5830 5833 5837 5841 5845 5850 5853 5857 5861 5865 5868 5871 5876 5879 5883 5887 5892 5895 5898 5900 5904
5739 5742 5746 5749 5752 5754 5756 5762 5764 5767 5769 5773 5777 5781 5784 5788 5790 5790 5797 5800 5804 5808 5813 5817 5821 5825 5828 5832 5837 5842 5846 5850 5854 5858 5861 5865 5868 5872 5875 5880 5884 5888 5891 5895
5734 5736 5739 5741 5745 5747 5751 5755 5757 5759 5764 5765 5767 5771 5774 5777 5780 5782 5786 5788 5791 5795 5799 5803 5807 5811 5815 5819 5823 5828 5832 5838 5842 5847 5850 5853 5857 5861 5863 5868 5873 5876 5880 5884
5727 5729 5732 5734 5736 5739 5742 5745 5748 5751 5753 5756 5759 5762 5765 5768 5770 5771 5773 5776 5778 5781 5785 5788 5792 5795 5799 5803 5808 5812 5817 5823 5828 5833 5837 5841 5845 5849 5853 5856 5861 5863 5868 5872
5721 5722 5724 5727 5728 5730 5731 5735 5738 5741 5744 5746 5749 5752 5755 5757 5759 5760 5761 5763 5765 5768 5771 5773 5777 5780 5782 5787 5792 5796 5800 5805 5811 5817 5822 5827 5831 5836 5841 5845 5848 5852 5855 5859
5716 5716 5718 5720 5721 5722 5724 5726 5728 5731 5734 5736 5738 5740 5742 5743 5745 5747 5749 5750 5750 5752 5755 5757 5760 5763 5767 5769 5773 5779 5784 5788 5793 5798 5805 5810 5816 5822 5826 5831 5835 5841 5843 5847
5711 5712 5714 5715 5716 5716 5718 5720 5722 5724 5725 5727 5729 5730 5732 5733 5734 5735 5736 5737 5736 5737 5738 5739 5742 5745 5748 5751 5754 5758 5763 5768 5775 5779 5784 5791 5797 5804 5811 5816 5821 5826 5831 5834
5702 5704 5706 5707 5710 5711 5712 5713 5715 5716 5717 5718 5718 5720 5721 5722 5722 5723 5723 5724 5724 5723 5722 5722 5723 5725 5728 5731 5734 5736 5740 5746 5752 5759 5764 5768 5776 5784 5791 5799 5804 5810 5815 5820
Wind_Speed
31 30 33 30 31 38 29 25 26 24 20 17 14 10 9 5 6 16 21 18 16 18 19 20 18 18 17 18 19 19 18 17 17 11 8 8 10 9 11 10 11 11 11 11
33 30 32 36 36 30 29 29 26 24 21 20 18 13 10 7 6 12 22 19 17 15 16 19 18 19 19 19 19 20 20 19 16 10 9 9 10 10 11 11 12 12 12 11
31 34 35 33 35 32 32 30 30 27 22 20 21 16 15 11 14 18 20 21 17 16 17 20 20 20 18 18 20 22 22 20 18 14 12 10 10 11 13 13 13 14 12 11
34 35 35 34 31 32 32 36 32 29 24 18 22 16 18 16 22 20 21 19 22 19 17 21 24 21 20 21 20 21 24 21 19 18 14 11 9 11 13 14 13 14 13 11
35 34 35 34 32 30 33 34 34 33 29 24 23 17 25 23 23 25 21 18 16 15 17 19 20 21 20 19 19 20 24 23 21 21 16 13 12 13 15 16 15 14 14 13
37 37 35 33 36 35 31 32 31 29 29 29 25 23 28 30 27 27 22 20 16 14 18 19 22 24 23 21 20 20 23 24 22 21 18 14 14 15 15 16 16 16 15 14
35 38 36 35 35 37 35 32 30 29 30 21 29 31 27 32 30 26 22 21 19 18 20 23 19 20 22 22 20 19 21 25 24 21 19 17 17 17 16 16 16 15 15 15
36 38 38 38 38 35 34 34 27 27 26 24 29 36 34 31 29 29 26 25 19 15 19 22 22 24 22 24 23 21 21 23 26 23 22 19 18 18 18 18 18 16 15 14
29 38 38 36 36 35 35 36 32 24 23 20 29 43 34 33 31 25 24 24 20 17 18 13 30 21 21 23 25 23 22 23 27 27 23 21 22 20 20 20 20 18 18 16
34 36 36 37 38 39 38 36 35 32 27 26 32 31 39 36 33 29 25 25 19 19 15 19 23 22 20 23 27 26 26 25 28 31 28 26 24 22 20 20 22 21 18 17
33 33 35 35 39 42 40 38 37 30 30 26 28 34 35 30 31 30 28 27 24 22 19 25 23 25 22 21 24 26 27 29 29 29 32 28 27 26 24 23 23 23 22 20
34 35 34 37 34 36 39 41 42 39 37 33 27 37 31 31 31 31 29 28 28 26 22 24 16 13 16 24 24 26 29 31 31 32 32 33 31 29 27 25 25 25 25 24
33 35 34 34 35 36 38 40 40 40 38 31 29 35 32 31 30 30 31 32 32 33 29 26 22 18 20 18 22 26 28 30 34 34 33 33 34 32 30 29 28 28 28 26
36 35 35 25 31 37 38 39 40 41 39 27 34 39 38 35 35 34 32 33 35 38 37 33 31 28 28 23 24 25 28 30 32 34 35 33 33 35 35 34 32 30 30 29
31 34 35 38 41 41 39 39 41 45 46 42 39 44 41 38 38 38 37 38 39 40 40 40 40 36 35 35 31 29 28 31 34 32 32 36 36 35 36 38 36 34 31 31
23 28 37 36 39 39 42 42 43 44 43 46 49 44 41 41 41 42 43 43 43 43 43 44 44 42 40 41 40 35 36 33 32 33 32 34 36 36 36 35 37 38 36 34
28 25 25 32 34 33 34 38 41 43 44 46 44 48 44 44 44 43 43 44 45 46 45 46 46 45 44 42 43 44 42 40 40 40 37 37 39 37 36 39 38 37 39 39
32 31 27 27 27 32 38 37 35 38 40 41 43 42 44 44 45 46 46 46 48 47 48 49 49 49 48 47 45 46 47 48 46 43 43 37 41 39 37 39 38 40 41 41
25 31 32 29 27 29 27 30 36 39 41 40 41 40 39 41 42 45 45 47 49 51 52 52 51 52 52 52 51 50 50 50 52 49 46 41 43 46 48 48 40 39 38 42
24 24 26 29 31 31 31 27 27 30 36 37 39 39 41 42 43 49 45 46 48 50 53 55 55 56 56 56 56 54 54 53 55 53 51 50 49 49 51 42 40 44 42 41
26 27 29 31 33 35 32 33 35 35 35 34 35 36 37 38 39 42 39 42 43 45 48 52 56 59 61 61 61 60 60 59 59 59 58 54 52 50 45 46 45 41 45 45
23 26 28 31 33 36 35 35 36 35 35 38 39 40 40 41 41 43 44 45 46 48 49 50 52 56 61 64 66 66 65 64 65 65 64 62 59 56 53 50 47 44 48 45
14 17 22 25 27 27 29 34 35 36 35 37 38 41 44 46 48 49 51 52 53 54 54 54 55 56 60 63 66 70 71 70 69 68 70 70 67 64 62 59 56 50 50 48
7 9 13 15 16 18 20 23 26 28 30 31 33 35 36 37 40 44 48 51 54 56 57 58 60 62 62 65 67 68 72 75 76 74 72 73 72 71 68 64 62 59 55 52
16 15 16 15 17 18 19 20 21 23 24 25 26 26 25 22 21 23 30 37 44 53 59 61 62 64 66 67 68 71 73 75 78 81 81 79 77 74 73 71 68 67 63 58
27 27 27 27 25 24 24 24 23 25 26 26 27 29 33 34 34 35 35 35 36 40 51 57 63 65 65 65 68 72 72 70 75 81 85 86 84 81 78 73 73 71 67 61
Wind_Direction
210 209 209 208 210 212 207 210 214 215 209 204 210 207 202 227 192 193 184 184 191 194 190 197 190 195 192 186 180 185 184 183 181 177 178 174 163 154 153 143 134 124 123 133
209 206 205 207 211 213 212 212 214 212 209 206 206 198 208 213 206 206 202 181 194 201 188 197 197 198 195 192 185 187 189 191 192 177 168 174 171 165 162 151 137 127 121 127
203 207 207 206 208 208 208 210 215 215 205 206 201 200 208 203 196 199 198 187 186 190 186 189 202 204 200 198 195 191 190 192 193 188 185 186 193 177 167 158 145 135 130 129
200 204 207 206 207 206 209 211 212 213 205 207 197 220 204 200 195 201 197 201 202 190 189 187 198 206 207 206 204 201 193 193 194 197 197 194 188 185 181 169 154 142 140 138
201 202 204 203 203 203 204 210 211 213 206 210 195 181 203 203 203 185 191 202 217 209 190 187 197 203 215 218 217 210 203 195 197 204 206 197 190 197 187 177 169 157 152 150
199 199 198 200 206 206 209 211 213 214 212 207 202 186 211 204 206 207 210 216 231 242 225 205 196 198 206 216 225 229 211 204 198 210 210 203 196 197 193 185 184 173 163 155
198 201 202 204 201 207 206 207 208 208 210 204 211 199 213 205 208 213 217 227 229 227 241 236 214 210 203 207 220 225 225 210 205 208 215 210 202 196 195 197 191 193 176 162
205 203 201 202 203 207 206 205 209 213 205 206 207 213 213 206 211 216 221 224 233 220 225 237 245 238 210 199 207 220 220 217 212 210 213 210 208 203 195 200 202 202 201 181
204 208 203 205 206 206 203 202 197 199 203 202 215 219 213 211 210 212 219 222 227 215 218 229 209 231 225 206 207 211 219 218 214 215 213 210 206 212 203 201 203 205 202 200
212 211 206 205 205 205 207 203 209 209 209 195 227 216 223 215 212 212 211 215 219 216 225 215 228 215 228 222 211 211 215 220 218 216 214 212 211 215 215 212 209 205 208 206
209 213 213 209 207 207 207 209 208 209 208 206 230 229 225 217 216 214 214 220 222 223 235 219 219 209 215 225 224 218 220 222 223 220 221 218 216 216 220 220 219 213 209 208
203 209 215 216 213 212 214 211 208 213 216 208 207 235 223 222 220 217 218 216 219 223 232 247 205 212 210 228 224 229 225 225 225 225 225 223 221 220 219 223 224 223 220 214
206 208 213 217 217 215 215 214 213 215 211 217 214 236 224 224 223 223 221 219 218 221 228 233 244 236 221 228 228 227 232 234 230 229 228 229 228 226 226 223 225 225 225 224
203 204 203 207 215 218 217 215 216 216 216 220 220 224 223 221 224 226 226 223 221 223 226 228 226 229 244 234 224 228 239 242 243 236 233 231 232 231 230 231 228 226 229 229
217 211 206 206 213 216 215 216 216 218 219 214 229 227 228 224 222 223 226 227 225 223 226 227 227 228 228 238 238 232 234 230 239 240 240 237 238 235 231 232 235 235 231 232
222 218 220 218 217 217 214 216 218 219 221 225 230 233 230 230 227 225 226 227 227 226 226 228 228 227 227 231 237 238 237 232 230 236 232 235 234 238 243 240 237 237 237 235
227 228 223 231 230 225 226 224 220 222 222 224 227 231 231 232 233 231 228 229 231 232 232 231 231 230 228 228 230 236 236 241 238 233 235 238 239 238 239 240 241 242 242 240
229 234 234 235 230 228 228 224 227 229 226 228 232 233 234 236 236 236 234 230 233 234 234 235 234 234 232 230 230 232 236 236 241 248 244 234 242 242 240 236 239 243 245 243
227 233 236 233 229 232 230 226 228 231 232 231 232 231 233 236 237 238 238 235 232 233 235 235 237 237 236 235 233 233 236 237 238 240 242 240 243 246 243 243 243 243 242 244
228 229 224 224 227 232 230 228 231 232 235 233 235 236 237 238 239 238 240 241 240 237 234 235 236 237 239 238 236 235 235 238 238 241 244 242 249 253 242 248 242 247 247 245
228 229 231 234 234 236 236 236 238 238 239 234 235 235 236 237 241 245 242 246 245 245 244 241 238 236 236 238 239 238 235 235 238 239 243 246 248 251 246 250 240 244 246 246
231 233 234 235 237 239 239 237 236 239 237 239 239 240 241 243 245 249 251 251 251 252 251 248 246 243 239 237 238 239 239 236 234 237 240 243 246 249 251 253 256 253 250 258
236 232 231 231 235 237 236 239 238 239 238 238 239 241 244 245 248 249 252 254 255 254 253 252 252 251 250 244 239 239 239 240 238 235 235 239 244 245 248 252 253 253 255 258
247 237 231 227 227 231 231 234 236 239 241 244 246 246 248 251 252 253 253 253 254 255 254 254 255 254 254 255 252 245 240 239 240 240 238 237 238 239 244 245 247 249 252 253
249 248 248 238 231 228 232 231 232 231 233 235 235 234 233 241 250 257 261 261 260 260 257 256 256 256 256 254 253 254 251 246 240 241 241 240 241 240 239 240 243 244 248 249
250 246 246 246 251 249 246 247 250 248 253 257 257 254 246 252 262 273 276 279 278 275 262 260 258 254 253 253 253 251 250 249 247 242 241 241 241 241 241 239 241 241 245 245